Regional Weather Roundup
Issued by NWS

Home | Current Version | Previous Version | Text Only | Print | Product List | Glossary Off
Versions: 1 2 3 4 5 6 7 8 9 10 11 12 13 14 15 16 17 18 19 20 21 22 23 24 25 26 27 28 29 30 31 32 33 34 35 36 37 38 39 40 41 42 43 44 45 46 47 48 49 50

000
ASUS45 KCYS 110210
RWRWY

WYOMING REGIONAL WEATHER ROUNDUP
NATIONAL WEATHER SERVICE CHEYENNE WY
700 PM MST SAT DEC 10 2016

NOTE:  "FAIR" INDICATES FEW OR NO CLOUDS BELOW 12,000 FEET
WITH NO SIGNIFICANT WEATHER AND/OR OBSTRUCTIONS TO VISIBILITY.

WYZ001-110300-
YELLOWSTONE NATIONAL PARK

CITY           SKY/WX    TMP DP  RH WIND       PRES   REMARKS
LK YELLOWSTONE   N/A     22  20  92 W9        29.72R WCI  12
W YELLOWSTONE  NOT AVBL

$$
WYZ002>013-054>058-071-098>099-110300-
NORTHERN WYOMING

CITY           SKY/WX    TMP DP  RH WIND       PRES   REMARKS
JACKSON        CLOUDY    32  23  69 SW13      29.74S WCI  22
CODY           FLURRIES  26  24  92 NE5       29.71R WCI  20
GREYBULL       LGT SNOW  31  26  82 NW25      29.69R WCI  17
WORLAND        FAIR      17  11  77 CALM      29.71R
SHERIDAN       CLOUDY    22  19  89 VRB3      29.72F
BUFFALO        LGT SNOW  31  27  85 N26G40    29.67S FOG     WCI  17
GILLETTE       LGT SNOW  16  14  92 NW7       29.70R VSB 3/4 WCI   6
HULETT         LGT SNOW  10   5  79 S6        29.69R WCI   1
NEWCASTLE      FAIR      10   7  85 CALM      29.62S

$$
WYZ014>020-022>026-101>103-110300-
CENTRAL WYOMING

CITY           SKY/WX    TMP DP  RH WIND       PRES   REMARKS
BIG PINEY      FLURRIES  32  26  78 W20G30    29.79R WCI  20
PINEDALE       CLOUDY    32  27  80 MISG      29.76F
DUBOIS         MOCLDY    32  18  55 NW22G31   29.65S WCI  19
LANDER         FAIR      41  20  43 NW7       29.66S
RIVERTON       FAIR      36  22  56 NW14      29.66R WCI  27
CASPER         FAIR      39  30  70 SW22G31   29.62R WCI  29
DOUGLAS        FAIR      44  29  55 W23G31    29.59S

$$
WYZ021-027>030-104>119-110300-
SOUTHERN WYOMING

CITY           SKY/WX    TMP DP  RH WIND       PRES   REMARKS
EVANSTON       LGT SNOW  32  29  88 W14       29.85R VSB 1   WCI  22
KEMMERER       LGT SNOW  32  30  93 W22G30    29.82R WCI  19
FORT BRIDGER   LGT SNOW  33  33 100 W9        29.87S WCI  25
ROCK SPRINGS   CLOUDY    34  29  82 SW21      29.79F WCI  22
DIXON          LGT RAIN  36  32  84 SW17G24   29.87S WCI  26
RAWLINS        FAIR      35  29  78 SW24      29.76S WCI  23
SARATOGA       FAIR      36  30  80 SW21      29.77F WCI  24
LARAMIE        MOCLDY    37  26  64 W17G25    29.76F WCI  27
CHEYENNE       FAIR      43  29  57 W28G37    29.70F
TORRINGTON     FAIR      48  31  51 W18G29    29.61F
PINE BLUFFS    FAIR      39  30  70 SW10      29.70F WCI  32

$$



USA.gov is the U.S. government's official web portal to all federal, state and local government web resources and services.